Location: All Nations United Methodist Church
(33.0215°N, 96.7483°W)
Time: 15:32:36
(UTC+00:00)

H-2A R/B - Pass Details

Date: 24 January 2021
Orbit: 500 x 539 km, 97.3° (Epoch: 06 March)

Event Time Altitude Azimuth Distance (km) Brightness Sun altitude
Rises 12:27:33 0° 358° (N) 2,611 6.1 -12.6°
Reaches altitude 10° 12:29:49 10° 347° (NNW) 1,728 5.1 -12.1°
Maximum altitude 12:33:03 29° 286° (WNW) 966 3.5 -11.5°
Drops below altitude 10° 12:36:18 10° 226° (SW) 1,736 5.1 -10.8°
Sets 12:38:35 0° 215° (SW) 2,626 6.1 -10.4°
